Time,TemperatureF,DewpointF,PressureIn,WindDirection,WindDirectionDegrees,WindSpeedMPH,WindSpeedGustMPH,Humidity,HourlyPrecipIn,Conditions,Clouds,dailyrainin,SoftwareType,DateUTC
2013-05-16 00:02:00,55.0,45.0,29.99,North,10,3.0,-999.0,68,-99.99,,,-99.99,,2013-05-16 07:02:00,
2013-05-16 00:12:00,55.0,45.0,29.99,North,10,3.0,-999.0,68,-99.99,,,-99.99,,2013-05-16 07:12:00,
2013-05-16 00:24:00,56.0,44.0,29.99,NNW,333,3.0,-999.0,64,-99.99,,,-99.99,,2013-05-16 07:24:00,
2013-05-16 00:34:00,56.0,44.0,29.98,NNW,347,4.0,-999.0,64,-99.99,,,-99.99,,2013-05-16 07:34:00,
2013-05-16 00:44:00,56.0,44.0,29.98,NNW,347,4.0,-999.0,64,-99.99,,,-99.99,,2013-05-16 07:44:00,
2013-05-16 00:54:00,56.0,45.0,29.98,NNW,339,6.0,-999.0,67,-99.99,,,-99.99,,2013-05-16 07:54:00,
2013-05-16 01:03:00,55.0,46.0,29.98,North,351,6.0,-999.0,72,-99.99,,,-99.99,,2013-05-16 08:03:00,
2013-05-16 01:13:00,55.0,46.0,29.98,North,351,6.0,-999.0,72,-99.99,,,-99.99,,2013-05-16 08:13:00,
2013-05-16 01:23:00,55.0,45.0,29.99,NNW,348,4.0,-999.0,70,-99.99,,,-99.99,,2013-05-16 08:23:00,
2013-05-16 01:34:00,56.0,46.0,29.99,NNE,12,5.0,-999.0,70,-99.99,,,-99.99,,2013-05-16 08:34:00,
2013-05-16 01:44:00,56.0,46.0,29.99,NNE,12,5.0,-999.0,70,-99.99,,,-99.99,,2013-05-16 08:44:00,
2013-05-16 01:54:00,55.0,47.0,29.98,NNE,29,3.0,-999.0,73,-99.99,,,-99.99,,2013-05-16 08:54:00,
2013-05-16 02:04:00,55.0,46.0,29.98,NW,323,4.0,-999.0,72,-99.99,,,-99.99,,2013-05-16 09:04:00,
2013-05-16 02:14:00,54.0,46.0,29.98,North,355,4.0,-999.0,74,-99.99,,,-99.99,,2013-05-16 09:14:00,
2013-05-16 02:23:00,54.0,46.0,29.98,North,355,4.0,-999.0,74,-99.99,,,-99.99,,2013-05-16 09:23:00,
2013-05-16 02:35:00,54.0,45.0,29.98,NNW,344,1.0,-999.0,72,-99.99,,,-99.99,,2013-05-16 09:35:00,
2013-05-16 02:45:00,54.0,45.0,29.98,NNW,344,1.0,-999.0,72,-99.99,,,-99.99,,2013-05-16 09:45:00,
2013-05-16 02:55:00,54.0,46.0,29.97,NNW,342,2.0,-999.0,73,-99.99,,,-99.99,,2013-05-16 09:55:00,
2013-05-16 03:04:00,54.0,47.0,29.97,North,360,4.0,-999.0,76,-99.99,,,-99.99,,2013-05-16 10:04:00,
2013-05-16 03:14:00,54.0,46.0,29.97,North,360,3.0,-999.0,74,-99.99,,,-99.99,,2013-05-16 10:14:00,
2013-05-16 03:24:00,54.0,46.0,29.97,North,360,3.0,-999.0,74,-99.99,,,-99.99,,2013-05-16 10:24:00,
2013-05-16 03:35:00,55.0,47.0,29.97,NNE,19,3.0,-999.0,73,-99.99,,,-99.99,,2013-05-16 10:35:00,
2013-05-16 03:45:00,55.0,47.0,29.97,NNE,19,3.0,-999.0,73,-99.99,,,-99.99,,2013-05-16 10:45:00,
2013-05-16 03:56:00,55.0,46.0,29.97,NNW,346,1.0,-999.0,71,-99.99,,,-99.99,,2013-05-16 10:56:00,
2013-05-16 04:05:00,55.0,46.0,29.97,NNW,336,1.0,-999.0,72,-99.99,,,-99.99,,2013-05-16 11:05:00,
2013-05-16 04:14:00,55.0,46.0,29.97,NNW,336,1.0,-999.0,72,-99.99,,,-99.99,,2013-05-16 11:14:00,
2013-05-16 04:25:00,55.0,47.0,29.96,WSW,241,0.0,-999.0,74,-99.99,,,-99.99,,2013-05-16 11:25:00,
2013-05-16 04:35:00,54.0,46.0,29.97,SSW,202,1.0,-999.0,75,-99.99,,,-99.99,,2013-05-16 11:35:00,
2013-05-16 04:46:00,54.0,46.0,29.97,SSW,202,1.0,-999.0,75,-99.99,,,-99.99,,2013-05-16 11:46:00,
2013-05-16 04:56:00,53.0,46.0,29.97,SW,226,0.0,-999.0,77,-99.99,,,-99.99,,2013-05-16 11:56:00,
2013-05-16 05:06:00,53.0,47.0,29.97,SW,234,1.0,-999.0,79,-99.99,,,-99.99,,2013-05-16 12:06:00,
2013-05-16 05:13:00,53.0,47.0,29.97,SW,234,1.0,-999.0,79,-99.99,,,-99.99,,2013-05-16 12:13:00,
2013-05-16 05:23:00,54.0,47.0,29.97,WSW,244,0.0,-999.0,78,-99.99,,,-99.99,,2013-05-16 12:23:00,
2013-05-16 05:34:00,53.0,47.0,29.96,ESE,117,1.0,-999.0,80,-99.99,,,-99.99,,2013-05-16 12:34:00,
2013-05-16 05:45:00,53.0,47.0,29.96,ESE,117,1.0,-999.0,80,-99.99,,,-99.99,,2013-05-16 12:45:00,
2013-05-16 05:53:00,53.0,47.0,29.96,NE,34,0.0,-999.0,81,-99.99,,,-99.99,,2013-05-16 12:53:00,
2013-05-16 06:04:00,53.0,47.0,29.96,WSW,246,1.0,-999.0,80,-99.99,,,-99.99,,2013-05-16 13:04:00,
2013-05-16 06:12:00,53.0,47.0,29.96,WSW,246,1.0,-999.0,80,-99.99,,,-99.99,,2013-05-16 13:12:00,
2013-05-16 06:26:00,53.0,47.0,29.96,NNE,29,1.0,-999.0,81,-99.99,,,-99.99,,2013-05-16 13:26:00,
2013-05-16 06:35:00,53.0,47.0,29.96,SW,232,0.0,-999.0,80,-99.99,,,-99.99,,2013-05-16 13:35:00,
2013-05-16 06:43:00,53.0,47.0,29.96,SW,232,0.0,-999.0,80,-99.99,,,-99.99,,2013-05-16 13:43:00,
2013-05-16 06:54:00,53.0,48.0,29.96,ENE,70,2.0,-999.0,82,-99.99,,,-99.99,,2013-05-16 13:54:00,
2013-05-16 07:05:00,53.0,47.0,29.97,NE,54,1.0,-999.0,81,-99.99,,,-99.99,,2013-05-16 14:05:00,
2013-05-16 07:15:00,53.0,47.0,29.97,NE,54,1.0,-999.0,81,-99.99,,,-99.99,,2013-05-16 14:15:00,
2013-05-16 07:23:00,53.0,47.0,29.98,SW,234,0.0,-999.0,81,-99.99,,,-99.99,,2013-05-16 14:23:00,
2013-05-16 07:37:00,53.0,47.0,29.98,South,183,0.0,-999.0,81,-99.99,,,-99.99,,2013-05-16 14:37:00,
2013-05-16 07:47:00,53.0,47.0,29.98,South,183,0.0,-999.0,81,-99.99,,,-99.99,,2013-05-16 14:47:00,
2013-05-16 07:55:00,54.0,48.0,29.99,NW,323,1.0,-999.0,80,-99.99,,,-99.99,,2013-05-16 14:55:00,
2013-05-16 08:08:00,55.0,49.0,29.99,NNW,335,1.0,-999.0,80,-99.99,,,-99.99,,2013-05-16 15:08:00,
2013-05-16 08:17:00,55.0,49.0,29.99,NNW,335,1.0,-999.0,80,-99.99,,,-99.99,,2013-05-16 15:17:00,
2013-05-16 08:28:00,57.0,49.0,30.00,North,355,1.0,-999.0,75,-99.99,,,-99.99,,2013-05-16 15:28:00,
2013-05-16 08:40:00,56.0,50.0,30.00,East,100,1.0,-999.0,79,-99.99,,,-99.99,,2013-05-16 15:40:00,
2013-05-16 08:50:00,57.0,49.0,30.01,SW,234,1.0,-999.0,74,-99.99,,,-99.99,,2013-05-16 15:50:00,
2013-05-16 09:00:00,57.0,49.0,30.01,SW,234,1.0,-999.0,74,-99.99,,,-99.99,,2013-05-16 16:00:00,
2013-05-16 09:09:00,59.0,49.0,29.99,NNW,331,3.0,-999.0,70,-99.99,,,-99.99,,2013-05-16 16:09:00,
2013-05-16 09:19:00,59.0,49.0,29.99,NNW,331,3.0,-999.0,70,-99.99,,,-99.99,,2013-05-16 16:19:00,
2013-05-16 09:30:00,58.0,49.0,30.00,West,279,2.0,-999.0,72,-99.99,,,-99.99,,2013-05-16 16:30:00,
2013-05-16 09:40:00,59.0,-99.9,30.00,North,11,1.0,-999.0,73,-99.99,,,-99.99,,2013-05-16 16:40:00,
2013-05-16 09:50:00,59.0,50.0,30.00,North,11,1.0,-999.0,73,-99.99,,,-99.99,,2013-05-16 16:50:00,
2013-05-16 10:00:00,60.0,49.0,30.00,West,277,1.0,-999.0,68,-99.99,,,-99.99,,2013-05-16 17:00:00,
2013-05-16 10:10:00,60.0,51.0,30.00,West,267,1.0,-999.0,71,-99.99,,,-99.99,,2013-05-16 17:10:00,
2013-05-16 10:20:00,60.0,51.0,30.00,West,267,1.0,-999.0,71,-99.99,,,-99.99,,2013-05-16 17:20:00,
2013-05-16 10:30:00,59.0,50.0,30.00,West,270,1.0,-999.0,73,-99.99,,,-99.99,,2013-05-16 17:30:00,
2013-05-16 10:40:00,58.0,50.0,30.01,West,269,0.0,-999.0,74,-99.99,,,-99.99,,2013-05-16 17:40:00,
2013-05-16 10:50:00,58.0,-99.9,30.01,SSW,205,1.0,-999.0,77,-99.99,,,-99.99,,2013-05-16 17:50:00,
2013-05-16 11:00:00,58.0,-99.9,30.01,SSW,205,1.0,-999.0,77,-99.99,,,-99.99,,2013-05-16 18:00:00,
2013-05-16 11:10:00,59.0,50.0,30.01,West,261,1.0,-999.0,73,-99.99,,,-99.99,,2013-05-16 18:10:00,
2013-05-16 11:20:00,59.0,50.0,30.01,West,261,1.0,-999.0,73,-99.99,,,-99.99,,2013-05-16 18:20:00,
2013-05-16 11:30:00,-999.0,-99.9,30.01,WSW,243,1.0,-999.0,76,-99.99,,,-99.99,,2013-05-16 18:30:00,
2013-05-16 11:40:00,-999.0,-99.9,30.00,West,260,1.0,-999.0,71,-99.99,,,-99.99,,2013-05-16 18:40:00,
2013-05-16 11:50:00,-999.0,-99.9,30.00,West,260,1.0,-999.0,71,-99.99,,,-99.99,,2013-05-16 18:50:00,
2013-05-16 12:00:00,-999.0,-99.9,30.01,SW,228,4.0,-999.0,69,-99.99,,,-99.99,,2013-05-16 19:00:00,
2013-05-16 12:10:00,62.0,52.0,30.00,WSW,252,2.0,-999.0,69,-99.99,,,-99.99,,2013-05-16 19:10:00,
2013-05-16 12:20:00,62.0,52.0,30.00,WSW,252,2.0,-999.0,69,-99.99,,,-99.99,,2013-05-16 19:20:00,
2013-05-16 12:30:00,62.0,52.0,30.00,WSW,240,2.0,-999.0,70,-99.99,,,-99.99,,2013-05-16 19:30:00,
2013-05-16 12:40:00,63.0,-99.9,30.00,WSW,241,3.0,-999.0,69,-99.99,,,-99.99,,2013-05-16 19:40:00,
2013-05-16 12:50:00,-999.0,-99.9,30.00,WSW,241,3.0,-999.0,69,-99.99,,,-99.99,,2013-05-16 19:50:00,
2013-05-16 13:00:00,63.0,-99.9,30.00,SW,236,4.0,-999.0,69,-99.99,,,-99.99,,2013-05-16 20:00:00,
2013-05-16 13:10:00,-999.0,-99.9,30.00,WSW,242,4.0,-999.0,66,-99.99,,,-99.99,,2013-05-16 20:10:00,
2013-05-16 13:20:00,65.0,-99.9,29.99,SW,228,4.0,-999.0,65,-99.99,,,-99.99,,2013-05-16 20:20:00,
2013-05-16 13:30:00,65.0,53.0,29.99,SW,228,4.0,-999.0,65,-99.99,,,-99.99,,2013-05-16 20:30:00,
2013-05-16 13:40:00,-999.0,-99.9,29.99,SW,235,6.0,-999.0,65,-99.99,,,-99.99,,2013-05-16 20:40:00,
2013-05-16 13:50:00,65.0,53.0,29.99,WSW,245,6.0,-999.0,66,-99.99,,,-99.99,,2013-05-16 20:50:00,
2013-05-16 14:00:00,65.0,53.0,29.99,WSW,245,6.0,-999.0,66,-99.99,,,-99.99,,2013-05-16 21:00:00,
2013-05-16 14:10:00,66.0,-99.9,29.99,SW,235,5.0,-999.0,65,-99.99,,,-99.99,,2013-05-16 21:10:00,
2013-05-16 14:20:00,66.0,54.0,29.99,SW,235,5.0,-999.0,65,-99.99,,,-99.99,,2013-05-16 21:20:00,
2013-05-16 14:29:00,66.0,53.0,29.98,West,271,7.0,-999.0,64,-99.99,,,-99.99,,2013-05-16 21:29:00,
2013-05-16 14:38:00,67.0,54.0,29.99,WSW,252,5.0,-999.0,64,-99.99,,,-99.99,,2013-05-16 21:38:00,
2013-05-16 14:50:00,67.0,-99.9,29.99,WSW,252,5.0,-999.0,64,-99.99,,,-99.99,,2013-05-16 21:50:00,
2013-05-16 15:00:00,-999.0,-99.9,29.98,WNW,286,5.0,-999.0,65,-99.99,,,-99.99,,2013-05-16 22:00:00,
2013-05-16 15:07:00,67.0,54.0,29.98,West,275,5.0,-999.0,62,-99.99,,,-99.99,,2013-05-16 22:07:00,
2013-05-16 15:20:00,67.0,54.0,29.98,West,275,5.0,-999.0,62,-99.99,,,-99.99,,2013-05-16 22:20:00,
2013-05-16 15:30:00,67.0,55.0,29.98,WSW,238,5.0,-999.0,65,-99.99,,,-99.99,,2013-05-16 22:30:00,
2013-05-16 15:40:00,67.0,54.0,29.98,West,261,5.0,-999.0,64,-99.99,,,-99.99,,2013-05-16 22:40:00,
2013-05-16 15:50:00,67.0,54.0,29.98,West,261,5.0,-999.0,64,-99.99,,,-99.99,,2013-05-16 22:50:00,
2013-05-16 16:00:00,69.0,55.0,29.98,West,269,3.0,-999.0,60,-99.99,,,-99.99,,2013-05-16 23:00:00,
2013-05-16 16:06:00,71.0,54.0,29.97,NW,322,1.0,-999.0,55,-99.99,,,-99.99,,2013-05-16 23:06:00,
2013-05-16 16:16:00,70.0,54.0,29.97,SSW,201,4.0,-999.0,56,-99.99,,,-99.99,,2013-05-16 23:16:00,
2013-05-16 16:24:00,70.0,54.0,29.97,SSW,201,4.0,-999.0,56,-99.99,,,-99.99,,2013-05-16 23:24:00,
2013-05-16 16:34:00,69.0,53.0,29.96,SE,128,2.0,-999.0,57,-99.99,,,-99.99,,2013-05-16 23:34:00,
2013-05-16 16:45:00,69.0,53.0,29.96,SE,128,2.0,-999.0,57,-99.99,,,-99.99,,2013-05-16 23:45:00,
2013-05-16 16:54:00,69.0,53.0,29.96,WNW,291,4.0,-999.0,57,-99.99,,,-99.99,,2013-05-16 23:54:00,
2013-05-16 17:02:00,69.0,53.0,29.96,North,9,3.0,-999.0,57,-99.99,,,-99.99,,2013-05-17 00:02:00,
2013-05-16 17:13:00,69.0,53.0,29.96,North,9,3.0,-999.0,57,-99.99,,,-99.99,,2013-05-17 00:13:00,
2013-05-16 17:22:00,70.0,53.0,29.96,West,272,2.0,-999.0,54,-99.99,,,-99.99,,2013-05-17 00:22:00,
2013-05-16 17:33:00,70.0,52.0,29.96,WNW,291,2.0,-999.0,53,-99.99,,,-99.99,,2013-05-17 00:33:00,
2013-05-16 17:43:00,70.0,52.0,29.96,WNW,291,2.0,-999.0,53,-99.99,,,-99.99,,2013-05-17 00:43:00,
2013-05-16 17:52:00,69.0,53.0,29.96,NNE,13,2.0,-999.0,56,-99.99,,,-99.99,,2013-05-17 00:52:00,
2013-05-16 18:03:00,66.0,52.0,29.96,NNW,346,4.0,-999.0,60,-99.99,,,-99.99,,2013-05-17 01:03:00,
2013-05-16 18:12:00,66.0,52.0,29.96,NNW,346,4.0,-999.0,60,-99.99,,,-99.99,,2013-05-17 01:12:00,
2013-05-16 18:23:00,65.0,52.0,29.96,NW,315,4.0,-999.0,62,-99.99,,,-99.99,,2013-05-17 01:23:00,
2013-05-16 18:31:00,66.0,53.0,29.96,West,270,3.0,-999.0,62,-99.99,,,-99.99,,2013-05-17 01:31:00,
2013-05-16 18:43:00,66.0,53.0,29.96,West,270,3.0,-999.0,62,-99.99,,,-99.99,,2013-05-17 01:43:00,
2013-05-16 18:52:00,66.0,52.0,29.96,ENE,59,2.0,-999.0,61,-99.99,,,-99.99,,2013-05-17 01:52:00,
2013-05-16 19:02:00,66.0,52.0,29.95,NW,326,2.0,-999.0,60,-99.99,,,-99.99,,2013-05-17 02:02:00,
2013-05-16 19:11:00,66.0,52.0,29.95,NW,326,2.0,-999.0,60,-99.99,,,-99.99,,2013-05-17 02:11:00,
2013-05-16 19:21:00,65.0,51.0,29.95,North,355,2.0,-999.0,60,-99.99,,,-99.99,,2013-05-17 02:21:00,
2013-05-16 19:32:00,65.0,51.0,29.95,North,10,2.0,-999.0,61,-99.99,,,-99.99,,2013-05-17 02:32:00,
2013-05-16 19:42:00,65.0,51.0,29.95,North,10,2.0,-999.0,61,-99.99,,,-99.99,,2013-05-17 02:42:00,
2013-05-16 19:52:00,64.0,50.0,29.95,NNE,14,1.0,-999.0,61,-99.99,,,-99.99,,2013-05-17 02:52:00,
2013-05-16 20:01:00,63.0,50.0,29.95,North,10,2.0,-999.0,63,-99.99,,,-99.99,,2013-05-17 03:01:00,
2013-05-16 20:11:00,63.0,50.0,29.95,North,10,2.0,-999.0,63,-99.99,,,-99.99,,2013-05-17 03:11:00,
2013-05-16 20:22:00,61.0,49.0,29.95,NNW,336,3.0,-999.0,65,-99.99,,,-99.99,,2013-05-17 03:22:00,
2013-05-16 20:33:00,59.0,48.0,29.95,NNW,338,3.0,-999.0,67,-99.99,,,-99.99,,2013-05-17 03:33:00,
2013-05-16 20:43:00,59.0,48.0,29.95,NNW,338,3.0,-999.0,67,-99.99,,,-99.99,,2013-05-17 03:43:00,
2013-05-16 20:52:00,59.0,48.0,29.95,NW,321,3.0,-999.0,67,-99.99,,,-99.99,,2013-05-17 03:52:00,
2013-05-16 21:02:00,59.0,48.0,29.96,North,360,2.0,-999.0,67,-99.99,,,-99.99,,2013-05-17 04:02:00,
2013-05-16 21:13:00,59.0,48.0,29.96,North,360,2.0,-999.0,67,-99.99,,,-99.99,,2013-05-17 04:13:00,
2013-05-16 21:23:00,59.0,48.0,29.96,NNW,346,3.0,-999.0,67,-99.99,,,-99.99,,2013-05-17 04:23:00,
2013-05-16 21:33:00,59.0,48.0,29.96,North,355,3.0,-999.0,66,-99.99,,,-99.99,,2013-05-17 04:33:00,
2013-05-16 21:43:00,59.0,48.0,29.96,North,355,3.0,-999.0,66,-99.99,,,-99.99,,2013-05-17 04:43:00,
2013-05-16 21:53:00,59.0,48.0,29.97,NNW,346,2.0,-999.0,66,-99.99,,,-99.99,,2013-05-17 04:53:00,
2013-05-16 22:02:00,59.0,48.0,29.97,NNE,22,2.0,-999.0,66,-99.99,,,-99.99,,2013-05-17 05:02:00,
2013-05-16 22:13:00,59.0,48.0,29.97,NNE,22,2.0,-999.0,66,-99.99,,,-99.99,,2013-05-17 05:13:00,
2013-05-16 22:21:00,59.0,48.0,29.97,North,355,2.0,-999.0,66,-99.99,,,-99.99,,2013-05-17 05:21:00,
2013-05-16 22:32:00,59.0,48.0,29.97,NNW,327,3.0,-999.0,66,-99.99,,,-99.99,,2013-05-17 05:32:00,
2013-05-16 22:42:00,59.0,48.0,29.97,NNW,327,3.0,-999.0,66,-99.99,,,-99.99,,2013-05-17 05:42:00,
2013-05-16 22:51:00,58.0,47.0,29.97,North,9,3.0,-999.0,67,-99.99,,,-99.99,,2013-05-17 05:51:00,
2013-05-16 23:01:00,58.0,47.0,29.97,NNE,24,2.0,-999.0,67,-99.99,,,-99.99,,2013-05-17 06:01:00,
2013-05-16 23:11:00,58.0,47.0,29.97,NNE,24,2.0,-999.0,67,-99.99,,,-99.99,,2013-05-17 06:11:00,
2013-05-16 23:21:00,58.0,47.0,29.97,NNW,342,3.0,-999.0,66,-99.99,,,-99.99,,2013-05-17 06:21:00,
2013-05-16 23:32:00,56.0,46.0,29.96,NNE,23,4.0,-999.0,69,-99.99,,,-99.99,,2013-05-17 06:32:00,
2013-05-16 23:42:00,56.0,46.0,29.96,NNE,23,4.0,-999.0,69,-99.99,,,-99.99,,2013-05-17 06:42:00,
2013-05-16 23:51:00,56.0,46.0,29.97,NNW,347,4.0,-999.0,69,-99.99,,,-99.99,,2013-05-17 06:51:00,